Tracking 19846 objects as of 19-Sep-2019
HD Live streaming from Space Station
objects crossing your sky now

SL-8 R/B

Track SL-8 R/B now!
10-day predictions


NORAD ID: 8073
Int'l Code: 1975-074B
Perigee: 969.8 km
Apogee: 1,000.9 km
Inclination: 82.9 °
Period: 104.7 minutes
Semi major axis: 7356 km
RCS: 4.716 m2 (large)
Launch date: August 14, 1975
Source: Commonwealth of Independent States (former USSR) (CIS)
Launch site: PLESETSK MISSILE AND SPACE COMPLEX (PKMTR)

Note: This is a ROCKET BODY
aabbcc
Your satellite tracking list
Your tracking list is empty




NASA's NSSDC Master Catalog

Two Line Element Set (TLE):
1  8073U 75074B   19262.06561317  .00000083  00000-0  70190-4 0  9992
2  8073  82.8979  72.3112 0021110 346.4487 153.0559 13.75976013213534
Source of the keplerian elements: AFSPC